#timestamp,LO_Frequency,Hit,StdDev 
1583514015.6,286046998.5,N
1583514035.5,286046998.5,N
1583514055.3,286046998.3,N
1583514075.2,286046999.5,N
1583514095.9,286047000.3,N
1583514115.8,286047001.1,N
1583514135.6,286046999.6,N
1583514155.4,286046999.3,N
1583514175.3,286047001.1,N
1583514195.1,286047001.2,N
1583514215.8,286047002.0,N
1583514235.7,286047003.9,N
1583514255.5,286047002.8,N
1583514275.4,286047001.6,N
1583514295.2,286047003.9,N
1583514315.0,286047002.0,N
1583514315.9,286047002.0,N
1583514335.8,286047002.6,N
1583514355.6,286047002.0,N
1583514375.4,286046999.8,N
1583514395.3,286047000.9,N
1583514415.1,286047001.1,N
1583514435.9,286047002.4,N
1583514455.7,286047001.9,N
1583514475.5,286047002.7,N
1583514495.4,286047002.6,N
1583514515.2,286047000.0,N
1583514535.0,286047000.1,N
1583514536.0,286047000.1,N
1583514555.8,286046999.9,N
1583514575.6,286047003.8,N
1583514595.5,286047004.5,N
1583514615.3,286047005.4,Y
1583514635.1,286047003.5,P
1583514655.9,286047001.8,N
1583514675.7,286047002.4,N
1583514695.6,286047000.6,N
1583514715.4,286047000.5,N
1583514735.2,286047000.1,N
1583514755.1,286047000.1,N
1583514756.0,286047000.1,N
1583514775.8,286047002.8,N
1583514795.7,286047004.0,Y
1583514815.5,286047005.9,P
1583514835.3,286047001.9,N
1583514855.2,286047005.2,N
1583514875.0,286047002.5,N
1583514875.9,286047002.5,N
1583514895.8,286047006.8,Y
1583514915.6,286047000.8,P
1583514935.4,286047002.8,N
1583514955.3,286047002.3,N
1583514975.1,286046975.1,Y
1583514995.8,286046996.4,P
1583515015.7,286046996.3,N
1583515035.5,286046993.6,N
1583515055.4,286046994.7,N
1583515075.2,286046992.1,N
1583515095.0,286046991.7,N
1583515095.9,286046991.7,N
1583515115.8,286046996.3,N
1583515135.6,286046994.5,N
1583515155.5,286046992.3,N
1583515175.3,286046992.8,N
1583515195.1,286046991.3,Y
1583515215.9,286046995.9,P
1583515235.7,286046996.0,P
1583515255.5,286046997.0,P
1583515275.4,286046999.7,N
1583515295.2,286047001.0,N
1583515315.1,286046997.6,N
1583515316.0,286046997.6,N
1583515335.8,286046997.1,N
1583515355.6,286046997.4,N
1583515375.5,286046997.1,N
1583515395.3,286046998.8,N
1583515415.2,286047000.7,N
1583515435.9,286047001.3,N
1583515455.7,286047002.6,N
1583515475.6,286047001.3,N
1583515495.4,286047004.1,N
1583515515.2,286047002.6,N
1583515535.1,286047001.8,N
1583515536.0,286047001.8,N
1583515555.8,286047000.2,N
1583515575.7,286047002.3,N
1583515595.5,286047002.1,N
1583515615.3,286047002.7,N
1583515635.2,286047003.4,N
1583515655.0,286047003.1,N
1583515655.9,286047003.1,N
1583515675.8,286047001.6,N
1583515695.6,286047001.4,N
1583515715.4,286047001.9,N
1583515735.3,286047003.3,N
1583515755.1,286047004.6,N
1583515775.8,286047005.5,N
1583515795.7,286047001.7,N
1583515815.5,286047003.2,N
1583515835.4,286047004.0,N
1583515855.2,286047002.1,N
1583515875.0,286047003.6,N
1583515875.9,286047003.6,N
1583515895.8,286047005.7,Y
1583515915.6,286047003.8,P
1583515935.5,286047004.3,P
1583515955.3,286047001.6,N
1583515975.1,286047003.9,Y
1583515995.9,286046998.2,P
1583516015.8,286047000.8,N
1583516035.6,286047004.0,N
1583516055.5,286047000.6,N
1583516075.3,286046998.2,N
1583516095.1,286046998.7,N
1583516115.9,286046998.8,N
1583516135.7,286047000.9,N
1583516155.5,286046998.2,N
1583516175.4,286047004.3,N
1583516195.2,286047002.2,N
1583516215.1,286047002.2,N
1583516216.0,286047002.2,N
1583516235.8,286047000.0,N
1583516255.6,286047001.1,N
1583516275.5,286047000.8,N
1583516295.3,286046998.4,N
1583516315.2,286046998.2,N
1583516335.9,286046998.7,N
1583516355.7,286046998.8,N
1583516375.6,286046998.6,N
1583516395.4,286046998.8,N
1583516415.3,286046998.7,N
1583516435.1,286046998.8,N
1583516436.0,286046998.8,N
1583516455.8,286046998.1,N
1583516475.7,286046998.8,N
1583516495.5,286046997.0,N
1583516515.4,286046999.3,N
1583516535.2,286046996.6,N
1583516555.0,286046997.7,N
1583516555.9,286046997.7,N
1583516575.8,286046995.1,N
1583516595.6,286046994.2,Y
1583516615.5,286046994.9,P
1583516635.3,286046997.6,N
1583516655.1,286046995.3,N
1583516675.9,286046997.5,N
1583516695.7,286046997.5,N
1583516715.5,286046998.0,N
1583516735.4,286046997.3,N
1583516755.2,286046999.5,N
1583516775.1,286046997.1,N
1583516776.0,286046997.1,N
1583516795.8,286046997.5,N
1583516815.6,286046997.1,N
1583516835.5,286046996.1,Y
1583516855.3,286047002.3,P
1583516875.2,286047001.0,N
1583516895.9,286047002.3,N
1583516915.7,286047000.3,N
1583516935.6,286046998.4,N
1583516955.4,286046999.9,N
1583516975.2,286047004.0,N
1583516995.1,286047002.4,N
1583516996.0,286047002.4,N
1583517015.8,286047001.5,N
1583517035.7,286047003.3,N
1583517055.5,286047003.1,N
1583517075.3,286047004.1,N
1583517095.2,286047003.9,N
1583517115.0,286047004.2,N
1583517115.9,286047004.2,N
1583517135.8,286047003.8,N
1583517155.6,286047002.6,N
1583517175.4,286047000.8,N
1583517195.3,286047001.8,N
1583517215.1,286047003.8,N
1583517235.8,286047003.3,N
1583517255.7,286047003.6,N
1583517275.5,286047003.0,N
1583517295.4,286047003.0,N
1583517315.2,286047003.9,N
1583517335.0,286047003.1,N
1583517335.9,286047003.1,N
1583517355.8,286047004.4,N
1583517375.6,286047004.2,N
1583517395.5,286047003.6,N
1583517415.3,286047003.4,N
1583517435.1,286047005.6,Y
1583517455.9,286047001.9,P
1583517475.7,286047003.9,P
1583517495.6,286047003.1,P
1583517515.4,286047005.5,Y
1583517535.2,286047002.4,P
1583517555.1,286046998.6,P
1583517556.0,286046998.6,N
1583517575.8,286046999.5,N
1583517595.7,286046996.6,N
